DLR-TUBSAT

Last updated on Sat Feb 07 2026 00:02:31 GMT+0000 (Coordinated Universal Time)

1 25757U 99029B 26037.53788816 .00000215 00000+0 64680-4 0 9994 2 25757 98.6627 28.7919 0014812 31.4860 328.7218 14.52384573414282
UTC large
Height (km)
Speed (km/s)
/
Latitude / Longitude
Inclination (degrees)
Orbital Period (minutes)
Azimuth
Elevation
Range (km)
Doppler Factor

Next 0 passes for location: London (51.5072 / 0.1276)

Sorry there are no passes over London.